Content
SEND FEEDBACK

Daily
Averages
Monthly
Summary
United States of America

UKIAH, CALIFORNIA


Home > North America > United States > California
Elevation: 615 feet     Latitude: 39 08N     Longitude: 123 12W

WEATHER
 
SELECT A DAY
Number of Records: 217,057;   Date Range: 1/1/95 - 8/12/14
 
SHARE

PRINT THIS DATA

[ ← Previous Day ]
WEATHER ALMANAC - APRIL 26, 2013
[ Next Day → ]
[ °C ]   °F
Weather ElementAverageHighLow
Temperature62.5 °F84.9 °F (3:56 pm)44.1 °F (6:56 am)
Dewpoint44.7 °F51.1 °F (1:56 pm)39.9 °F (6:56 pm)
Humidity57.9 %90 % (3:56 am)26 % (4:56 pm)
Barometer30.15 in30.19 in (7:56 am)30.12 in (1:56 am)
Wind Speed2 mph13.8 mph (5:56 pm)
Weather ElementAverage
Visibility10 mi
Wind DirectionNNE (30 °)

Weather ElementTotal
Precipitation---
Heating Degree Days0.5 (Base 65)
Growing Degree Days14.5 (Base 50)
Averaged from 23 records on April 26, 2013
WEATHER CONDITIONS BREAKOUT
WIND DIRECTION BREAKOUT
WEATHER BY HOUR - APRIL 26, 2013
[ °C ]   °F
Local TimeTemperatureDewpointHumidityBarometerVisibilityWind DirectionWind SpeedGust SpeedPrecipitationEventsConditions
1:56 AM48.9 °F44.1 °F83 %30.12 in10.0 miCalmClear
2:56 AM46.0 °F43.0 °F89 %30.12 in10.0 miCalmClear
3:56 AM45.0 °F42.1 °F90 %30.13 in10.0 miCalmClear
4:56 AM45.0 °F42.1 °F90 %30.14 in10.0 miCalmClear
5:56 AM45.0 °F41.0 °F86 %30.15 in10.0 miCalmClear
6:56 AM44.1 °F41.0 °F89 %30.17 in10.0 miCalmClear
7:56 AM48.0 °F43.0 °F83 %30.19 in10.0 miCalmClear
8:56 AM53.1 °F46.0 °F77 %30.19 in10.0 miCalmClear
9:56 AM59.0 °F46.9 °F64 %30.19 in10.0 miCalmClear
10:56 AM64.0 °F48.0 °F56 %30.18 in10.0 miCalmClear
11:56 AM70.0 °F48.0 °F46 %30.17 in10.0 miVariable3.5 mphClear
12:56 PM77.0 °F50.0 °F39 %30.16 in10.0 miVariable3.5 mphClear
1:56 PM81.0 °F51.1 °F35 %30.14 in10.0 miVariable4.6 mphClear
2:56 PM84.0 °F50.0 °F31 %30.13 in10.0 miCalmClear
3:56 PM84.9 °F50.0 °F30 %30.12 in10.0 miVariable5.8 mphClear
4:56 PM82.9 °F45.0 °F26 %30.12 in10.0 miVariable4.6 mphClear
5:56 PM80.1 °F42.1 °F26 %30.12 in10.0 miNNE (20°)13.8 mphClear
6:56 PM75.9 °F39.9 °F27 %30.13 in10.0 miNorth (350°)6.9 mphClear
7:56 PM69.1 °F43.0 °F39 %30.14 in10.0 miNW (320°)3.5 mphClear
8:56 PM63.0 °F44.1 °F50 %30.16 in10.0 miCalmClear
9:56 PM60.1 °F41.0 °F49 %30.18 in10.0 miCalmClear
10:56 PM55.9 °F43.0 °F62 %30.18 in10.0 miCalmClear
11:56 PM55.0 °F43.0 °F64 %30.18 in10.0 miCalmClear
Hourly data recorded from KUKI, located miles away from Ukiah, California







STORIES FROM OUR PARTNERS